• In Uzbekistan
  • List of Countries
  • For 7 days
  • Water Temperature
  • Satellite Maps
  • Weather Map
  • Weather Widgets
  • user-avatar
    Login

    Hourly Weather Benguela

    Today, 11 December, Sunday

    Time Temperature Precipitation Wind Pressure Humidity
    00:00 +28°C° 0.1 mm 2 mps 758 mmHg 82%
    01:00 +28°C° 0 mm 2 mps 757 mmHg 84%
    02:00 +28°C° 0.6 mm 2 mps 757 mmHg 85%
    03:00 +28°C° 0.6 mm 2 mps 757 mmHg 85%
    04:00 +28°C° 0.6 mm 2 mps 757 mmHg 86%
    05:00 +28°C° 0.7 mm 2 mps 757 mmHg 85%
    06:00 +28°C° 0.7 mm 1 mps 757 mmHg 85%
    07:00 +28°C° 0.7 mm 1 mps 758 mmHg 84%
    08:00 +29°C° 0.5 mm 1 mps 758 mmHg 79%
    09:00 +30°C° 0.5 mm 2 mps 758 mmHg 75%
    10:00 +31°C° 0.5 mm 2 mps 758 mmHg 70%
    11:00 +32°C° 0.1 mm 2 mps 757 mmHg 66%
    12:00 +34°C° 0.1 mm 3 mps 757 mmHg 62%
    13:00 +35°C° 0.1 mm 3 mps 756 mmHg 58%
    14:00 +35°C° 0 mm 3 mps 756 mmHg 58%
    15:00 +34°C° 0 mm 3 mps 756 mmHg 57%
    16:00 +34°C° 0 mm 3 mps 756 mmHg 57%
    17:00 +33°C° 0 mm 3 mps 756 mmHg 62%
    18:00 +31°C° 0 mm 2 mps 756 mmHg 67%
    19:00 +30°C° 0 mm 2 mps 757 mmHg 73%
    20:00 +29°C° 0.2 mm 2 mps 757 mmHg 75%
    21:00 +29°C° 0.2 mm 2 mps 758 mmHg 77%
    22:00 +29°C° 0.2 mm 2 mps 758 mmHg 79%
    23:00 +29°C° 0.3 mm 2 mps 758 mmHg 81%

    Tomorrow, 12 December, Monday

    Time Temperature Precipitation Wind Pressure Humidity
    00:00 +29°C° 0.3 mm 2 mps 758 mmHg 82%
    01:00 +28°C° 0.3 mm 2 mps 757 mmHg 84%
    02:00 +28°C° 0.3 mm 2 mps 757 mmHg 85%
    03:00 +28°C° 0.3 mm 2 mps 757 mmHg 86%
    04:00 +28°C° 0.3 mm 2 mps 757 mmHg 86%
    05:00 +28°C° 0.4 mm 2 mps 758 mmHg 87%
    06:00 +28°C° 0.4 mm 1 mps 758 mmHg 88%
    07:00 +28°C° 0.4 mm 1 mps 759 mmHg 89%
    08:00 +28°C° 0.3 mm 1 mps 759 mmHg 87%
    09:00 +28°C° 0.3 mm 1 mps 759 mmHg 85%
    10:00 +29°C° 0.3 mm 1 mps 759 mmHg 83%
    11:00 +30°C° 0.1 mm 1 mps 759 mmHg 76%
    12:00 +31°C° 0.1 mm 2 mps 758 mmHg 70%
    13:00 +32°C° 0.1 mm 2 mps 757 mmHg 63%
    14:00 +32°C° 0 mm 2 mps 757 mmHg 61%
    15:00 +33°C° 0 mm 3 mps 756 mmHg 59%
    16:00 +34°C° 0 mm 3 mps 756 mmHg 57%
    17:00 +33°C° 0 mm 3 mps 756 mmHg 64%
    18:00 +30°C° 0 mm 3 mps 757 mmHg 71%
    19:00 +29°C° 0 mm 2 mps 757 mmHg 77%
    20:00 +29°C° 0 mm 2 mps 758 mmHg 80%
    21:00 +28°C° 0 mm 2 mps 758 mmHg 82%
    22:00 +28°C° 0 mm 2 mps 759 mmHg 84%
    23:00 +28°C° 0 mm 2 mps 758 mmHg 87%

    Day after tomorrow, 13 December, Tuesday

    Time Temperature Precipitation Wind Pressure Humidity
    00:00 +27°C° 0 mm 2 mps 758 mmHg 89%
    01:00 +27°C° 0 mm 2 mps 757 mmHg 91%
    02:00 +27°C° 0 mm 1 mps 757 mmHg 92%
    03:00 +26°C° 0 mm 1 mps 757 mmHg 92%
    04:00 +26°C° 0 mm 1 mps 757 mmHg 92%
    05:00 +27°C° 0 mm 1 mps 758 mmHg 90%
    06:00 +25°C° 0 mm 0 mps 758 mmHg 87%
    07:00 +26°C° 0 mm 0 mps 759 mmHg 85%
    08:00 +29°C° 0 mm 1 mps 759 mmHg 76%
    09:00 +31°C° 0 mm 1 mps 759 mmHg 67%
    10:00 +32°C° 0 mm 2 mps 759 mmHg 57%
    11:00 +34°C° 0 mm 3 mps 759 mmHg 54%
    12:00 +35°C° 0 mm 4 mps 758 mmHg 51%
    13:00 +36°C° 0 mm 5 mps 757 mmHg 48%
    14:00 +36°C° 0 mm 5 mps 757 mmHg 51%
    15:00 +35°C° 0 mm 5 mps 756 mmHg 53%
    16:00 +34°C° 0 mm 5 mps 756 mmHg 55%
    17:00 +33°C° 0 mm 4 mps 756 mmHg 60%
    18:00 +31°C° 0 mm 3 mps 757 mmHg 66%
    19:00 +30°C° 0 mm 3 mps 758 mmHg 71%
    20:00 +29°C° 0 mm 2 mps 758 mmHg 74%
    21:00 +29°C° 0 mm 2 mps 758 mmHg 77%
    22:00 +28°C° 0 mm 2 mps 759 mmHg 80%
    23:00 +28°C° 0 mm 2 mps 758 mmHg 81%

    14 December, Wednesday

    Time Temperature Precipitation Wind Pressure Humidity
    00:00 +28°C° 0 mm 2 mps 758 mmHg 82%
    01:00 +27°C° 0 mm 2 mps 758 mmHg 83%
    02:00 +27°C° 0 mm 2 mps 758 mmHg 83%
    03:00 +27°C° 0 mm 2 mps 757 mmHg 83%
    04:00 +27°C° 0 mm 1 mps 757 mmHg 83%
    05:00 +27°C° 0 mm 1 mps 758 mmHg 82%
    06:00 +28°C° 0 mm 1 mps 758 mmHg 81%
    07:00 +28°C° 0 mm 1 mps 759 mmHg 80%
    08:00 +28°C° 0 mm 1 mps 759 mmHg 77%
    09:00 +29°C° 0 mm 1 mps 759 mmHg 74%
    10:00 +29°C° 0 mm 2 mps 760 mmHg 71%
    11:00 +30°C° 0.1 mm 2 mps 759 mmHg 69%
    12:00 +30°C° 0.1 mm 3 mps 759 mmHg 67%
    13:00 +30°C° 0.1 mm 3 mps 758 mmHg 65%
    14:00 +30°C° 0 mm 3 mps 758 mmHg 63%
    15:00 +32°C° 0 mm 4 mps 758 mmHg 61%
    16:00 +32°C° 0 mm 4 mps 757 mmHg 59%
    17:00 +30°C° 0 mm 3 mps 758 mmHg 64%
    18:00 +29°C° 0 mm 3 mps 758 mmHg 70%
    19:00 +28°C° 0 mm 3 mps 759 mmHg 75%
    20:00 +28°C° 0 mm 2 mps 759 mmHg 78%
    21:00 +27°C° 0 mm 2 mps 759 mmHg 81%
    22:00 +27°C° 0 mm 2 mps 760 mmHg 84%
    23:00 +26°C° 0 mm 2 mps 759 mmHg 85%

    15 December, Thursday

    Time Temperature Precipitation Wind Pressure Humidity
    00:00 +26°C° 0 mm 2 mps 759 mmHg 86%
    01:00 +26°C° 0 mm 2 mps 759 mmHg 87%
    02:00 +26°C° 0 mm 2 mps 758 mmHg 88%
    03:00 +25°C° 0 mm 2 mps 758 mmHg 88%
    04:00 +25°C° 0 mm 2 mps 758 mmHg 89%
    05:00 +26°C° 0 mm 2 mps 758 mmHg 84%
    06:00 +27°C° 0 mm 2 mps 759 mmHg 80%
    07:00 +28°C° 0 mm 2 mps 759 mmHg 75%
    08:00 +29°C° 0 mm 2 mps 759 mmHg 66%
    09:00 +31°C° 0 mm 2 mps 759 mmHg 56%
    10:00 +34°C° 0 mm 2 mps 758 mmHg 46%
    11:00 +35°C° 0 mm 3 mps 758 mmHg 43%
    12:00 +37°C° 0 mm 4 mps 757 mmHg 40%
    13:00 +39°C° 0 mm 5 mps 756 mmHg 37%
    14:00 +38°C° 0 mm 6 mps 756 mmHg 39%
    15:00 +36°C° 0 mm 6 mps 756 mmHg 42%
    16:00 +36°C° 0 mm 7 mps 755 mmHg 44%
    17:00 +34°C° 0 mm 6 mps 756 mmHg 50%
    18:00 +32°C° 0 mm 5 mps 756 mmHg 57%
    19:00 +29°C° 0 mm 4 mps 757 mmHg 63%
    20:00 +29°C° 0 mm 4 mps 758 mmHg 66%
    21:00 +28°C° 0 mm 3 mps 758 mmHg 69%
    22:00 +28°C° 0 mm 2 mps 759 mmHg 72%
    23:00 +27°C° 0 mm 2 mps 758 mmHg 74%

    16 December, Friday

    Time Temperature Precipitation Wind Pressure Humidity
    00:00 +27°C° 0 mm 2 mps 758 mmHg 76%
    01:00 +27°C° 0 mm 2 mps 758 mmHg 77%
    02:00 +27°C° 0 mm 2 mps 758 mmHg 79%
    03:00 +26°C° 0 mm 2 mps 758 mmHg 81%
    04:00 +26°C° 0 mm 1 mps 757 mmHg 83%
    05:00 +27°C° 0 mm 1 mps 758 mmHg 80%
    06:00 +27°C° 0 mm 1 mps 758 mmHg 77%
    07:00 +28°C° 0 mm 1 mps 759 mmHg 75%
    08:00 +29°C° 0 mm 1 mps 759 mmHg 66%
    09:00 +31°C° 0 mm 2 mps 759 mmHg 58%
    10:00 +34°C° 0 mm 2 mps 759 mmHg 49%
    11:00 +35°C° 0 mm 3 mps 758 mmHg 48%
    12:00 +36°C° 0 mm 4 mps 757 mmHg 47%
    13:00 +36°C° 0 mm 4 mps 756 mmHg 46%
    14:00 +36°C° 0 mm 5 mps 756 mmHg 48%
    15:00 +35°C° 0 mm 5 mps 756 mmHg 51%
    16:00 +34°C° 0 mm 5 mps 755 mmHg 53%
    17:00 +33°C° 0.1 mm 4 mps 756 mmHg 60%
    18:00 +30°C° 0.1 mm 4 mps 756 mmHg 67%
    19:00 +29°C° 0.1 mm 4 mps 757 mmHg 74%
    20:00 +28°C° 0.1 mm 3 mps 757 mmHg 76%
    21:00 +28°C° 0.1 mm 3 mps 758 mmHg 77%
    22:00 +28°C° 0.1 mm 2 mps 758 mmHg 79%
    23:00 +28°C° 0 mm 2 mps 758 mmHg 80%
    Show more